• In Hungary
  • List of Countries
  • For 7 days
  • Water Temperature
  • Satellite Maps
  • Weather Map
  • News
  • Weather Widgets
  • user-avatar
    Login

    Hourly Weather Hajdarabad

    Today, 23 June, Saturday

    Time Temperature Precipitation Wind Pressure Humidity
    00:00 +34°C° 0 mm 8 mps 746 mmHg 68%
    01:00 +34°C° 0 mm 7 mps 746 mmHg 69%
    02:00 +33°C° 0 mm 7 mps 746 mmHg 71%
    03:00 +33°C° 0 mm 7 mps 746 mmHg 72%
    04:00 +33°C° 0 mm 7 mps 746 mmHg 73%
    05:00 +32°C° 0 mm 5 mps 745 mmHg 73%
    06:00 +33°C° 0 mm 6 mps 745 mmHg 70%
    07:00 +33°C° 0 mm 6 mps 746 mmHg 68%
    08:00 +34°C° 0 mm 7 mps 746 mmHg 66%
    09:00 +36°C° 0 mm 7 mps 746 mmHg 58%
    10:00 +39°C° 0 mm 7 mps 746 mmHg 49%
    11:00 +41°C° 0 mm 7 mps 745 mmHg 41%
    12:00 +42°C° 0 mm 6 mps 745 mmHg 37%
    13:00 +45°C° 0 mm 6 mps 745 mmHg 32%
    14:00 +46°C° 0 mm 6 mps 744 mmHg 28%
    15:00 +46°C° 0 mm 6 mps 744 mmHg 29%
    16:00 +46°C° 0 mm 7 mps 743 mmHg 31%
    17:00 +46°C° 0 mm 7 mps 743 mmHg 32%
    18:00 +43°C° 0 mm 8 mps 743 mmHg 40%
    19:00 +40°C° 0 mm 8 mps 744 mmHg 48%
    20:00 +38°C° 0 mm 9 mps 744 mmHg 56%
    21:00 +37°C° 0 mm 8 mps 744 mmHg 60%
    22:00 +35°C° 0 mm 8 mps 745 mmHg 64%
    23:00 +34°C° 0 mm 8 mps 746 mmHg 68%

    Tomorrow, 24 June, Sunday

    Time Temperature Precipitation Wind Pressure Humidity
    00:00 +34°C° 0 mm 8 mps 745 mmHg 69%
    01:00 +34°C° 0 mm 7 mps 745 mmHg 69%
    02:00 +33°C° 0 mm 7 mps 745 mmHg 69%
    03:00 +33°C° 0 mm 7 mps 745 mmHg 70%
    04:00 +33°C° 0 mm 7 mps 745 mmHg 70%
    05:00 +33°C° 0 mm 6 mps 745 mmHg 71%
    06:00 +33°C° 0 mm 7 mps 745 mmHg 68%
    07:00 +34°C° 0 mm 7 mps 745 mmHg 66%
    08:00 +34°C° 0 mm 7 mps 745 mmHg 63%
    09:00 +36°C° 0 mm 7 mps 745 mmHg 57%
    10:00 +39°C° 0 mm 7 mps 745 mmHg 50%
    11:00 +40°C° 0 mm 7 mps 745 mmHg 43%
    12:00 +43°C° 0 mm 7 mps 745 mmHg 39%
    13:00 +44°C° 0 mm 7 mps 744 mmHg 34%
    14:00 +46°C° 0 mm 7 mps 744 mmHg 30%
    15:00 +45°C° 0 mm 8 mps 744 mmHg 32%
    16:00 +45°C° 0 mm 8 mps 743 mmHg 34%
    17:00 +44°C° 0 mm 8 mps 743 mmHg 36%
    18:00 +42°C° 0 mm 9 mps 743 mmHg 43%
    19:00 +39°C° 0 mm 9 mps 744 mmHg 50%
    20:00 +38°C° 0 mm 9 mps 744 mmHg 56%
    21:00 +37°C° 0 mm 9 mps 744 mmHg 60%
    22:00 +35°C° 0 mm 9 mps 745 mmHg 63%
    23:00 +34°C° 0 mm 9 mps 745 mmHg 66%

    Day after tomorrow, 25 June, Monday

    Time Temperature Precipitation Wind Pressure Humidity
    00:00 +34°C° 0 mm 9 mps 745 mmHg 67%
    01:00 +34°C° 0 mm 9 mps 744 mmHg 68%
    02:00 +33°C° 0 mm 8 mps 744 mmHg 69%
    03:00 +33°C° 0 mm 8 mps 744 mmHg 69%
    04:00 +33°C° 0 mm 8 mps 744 mmHg 69%
    05:00 +33°C° 0 mm 8 mps 743 mmHg 69%
    06:00 +33°C° 0 mm 8 mps 744 mmHg 67%
    07:00 +34°C° 0 mm 8 mps 744 mmHg 65%
    08:00 +34°C° 0 mm 8 mps 744 mmHg 63%
    09:00 +35°C° 0 mm 9 mps 744 mmHg 59%
    10:00 +38°C° 0 mm 9 mps 744 mmHg 54%
    11:00 +39°C° 0 mm 9 mps 744 mmHg 50%
    12:00 +40°C° 0 mm 9 mps 743 mmHg 47%
    13:00 +42°C° 0 mm 9 mps 742 mmHg 45%
    14:00 +43°C° 0 mm 9 mps 742 mmHg 42%
    15:00 +43°C° 0 mm 9 mps 741 mmHg 43%
    16:00 +42°C° 0 mm 9 mps 741 mmHg 45%
    17:00 +42°C° 0 mm 9 mps 741 mmHg 47%
    18:00 +39°C° 0 mm 9 mps 741 mmHg 52%
    19:00 +38°C° 0 mm 9 mps 742 mmHg 57%
    20:00 +35°C° 0 mm 9 mps 742 mmHg 63%
    21:00 +35°C° 0 mm 9 mps 743 mmHg 65%
    22:00 +35°C° 0 mm 9 mps 743 mmHg 66%
    23:00 +34°C° 0 mm 9 mps 743 mmHg 68%

    26 June, Tuesday

    Time Temperature Precipitation Wind Pressure Humidity
    00:00 +34°C° 0 mm 9 mps 743 mmHg 69%
    01:00 +34°C° 0 mm 9 mps 743 mmHg 69%
    02:00 +33°C° 0 mm 9 mps 742 mmHg 69%
    03:00 +33°C° 0 mm 8 mps 742 mmHg 69%
    04:00 +33°C° 0 mm 8 mps 742 mmHg 69%
    05:00 +33°C° 0 mm 8 mps 742 mmHg 70%
    06:00 +33°C° 0 mm 7 mps 742 mmHg 68%
    07:00 +34°C° 0 mm 7 mps 742 mmHg 67%
    08:00 +34°C° 0 mm 7 mps 742 mmHg 65%
    09:00 +35°C° 0 mm 7 mps 743 mmHg 61%
    10:00 +36°C° 0 mm 6 mps 743 mmHg 58%
    11:00 +38°C° 0 mm 6 mps 743 mmHg 54%
    12:00 +39°C° 0 mm 6 mps 743 mmHg 51%
    13:00 +40°C° 0 mm 6 mps 742 mmHg 49%
    14:00 +40°C° 0 mm 6 mps 742 mmHg 46%
    15:00 +40°C° 0 mm 6 mps 741 mmHg 46%
    16:00 +40°C° 0 mm 7 mps 741 mmHg 46%
    17:00 +40°C° 0 mm 7 mps 741 mmHg 46%
    18:00 +39°C° 0 mm 7 mps 741 mmHg 50%
    19:00 +38°C° 0 mm 7 mps 742 mmHg 54%
    20:00 +36°C° 0 mm 7 mps 743 mmHg 57%
    21:00 +36°C° 0 mm 7 mps 743 mmHg 60%
    22:00 +35°C° 0 mm 6 mps 743 mmHg 63%
    23:00 +34°C° 0 mm 6 mps 744 mmHg 66%

    27 June, Wednesday

    Time Temperature Precipitation Wind Pressure Humidity
    00:00 +34°C° 0 mm 6 mps 743 mmHg 67%
    01:00 +33°C° 0 mm 6 mps 743 mmHg 69%
    02:00 +33°C° 0 mm 6 mps 743 mmHg 70%
    03:00 +33°C° 0 mm 6 mps 743 mmHg 70%
    04:00 +33°C° 0 mm 6 mps 743 mmHg 69%
    05:00 +32°C° 0 mm 6 mps 743 mmHg 69%
    06:00 +33°C° 0 mm 6 mps 743 mmHg 67%
    07:00 +33°C° 0 mm 6 mps 743 mmHg 64%
    08:00 +34°C° 0 mm 6 mps 744 mmHg 62%
    09:00 +36°C° 0 mm 5 mps 744 mmHg 56%
    10:00 +37°C° 0 mm 5 mps 744 mmHg 50%
    11:00 +40°C° 0 mm 5 mps 744 mmHg 44%
    12:00 +41°C° 0 mm 5 mps 743 mmHg 41%
    13:00 +42°C° 0 mm 5 mps 743 mmHg 38%
    14:00 +43°C° 0 mm 5 mps 742 mmHg 34%
    15:00 +43°C° 0 mm 5 mps 742 mmHg 35%
    16:00 +44°C° 0 mm 6 mps 742 mmHg 35%
    17:00 +44°C° 0 mm 6 mps 742 mmHg 35%
    18:00 +43°C° 0 mm 7 mps 742 mmHg 39%
    19:00 +40°C° 0 mm 7 mps 743 mmHg 44%
    20:00 +38°C° 0 mm 8 mps 743 mmHg 49%
    21:00 +38°C° 0 mm 8 mps 743 mmHg 52%
    22:00 +36°C° 0 mm 7 mps 744 mmHg 56%
    23:00 +35°C° 0 mm 7 mps 745 mmHg 59%

    28 June, Thursday

    Time Temperature Precipitation Wind Pressure Humidity
    00:00 +34°C° 0 mm 6 mps 744 mmHg 61%
    01:00 +34°C° 0 mm 6 mps 744 mmHg 63%
    02:00 +34°C° 0 mm 5 mps 743 mmHg 65%
    03:00 +33°C° 0 mm 5 mps 743 mmHg 66%
    04:00 +33°C° 0 mm 5 mps 744 mmHg 67%
    05:00 +33°C° 0 mm 4 mps 744 mmHg 68%
    06:00 +33°C° 0 mm 5 mps 744 mmHg 66%
    07:00 +33°C° 0 mm 5 mps 744 mmHg 65%
    08:00 +34°C° 0 mm 5 mps 745 mmHg 63%
    09:00 +35°C° 0 mm 5 mps 745 mmHg 57%
    10:00 +37°C° 0 mm 5 mps 745 mmHg 51%
    11:00 +39°C° 0 mm 5 mps 745 mmHg 45%
    12:00 +40°C° 0 mm 5 mps 744 mmHg 41%
    13:00 +42°C° 0 mm 5 mps 744 mmHg 36%
    14:00 +43°C° 0 mm 5 mps 744 mmHg 32%
    15:00 +43°C° 0 mm 5 mps 743 mmHg 32%
    16:00 +43°C° 0 mm 5 mps 743 mmHg 32%
    17:00 +44°C° 0 mm 6 mps 743 mmHg 31%
    18:00 +42°C° 0 mm 6 mps 743 mmHg 36%
    19:00 +41°C° 0 mm 6 mps 744 mmHg 40%
    20:00 +39°C° 0 mm 7 mps 744 mmHg 44%
    21:00 +38°C° 0 mm 7 mps 744 mmHg 48%
    22:00 +36°C° 0 mm 7 mps 745 mmHg 52%
    23:00 +35°C° 0 mm 7 mps 745 mmHg 56%
    Show more